Preview of NWS' New Version of Forecast
This preview is not operational and should not be used for support decisions.

Regional Weather Roundup (RWR)

Issued by National Weather Service (NWS)

                            
000
ASPQ40 PGUM 180110
RWRPQ 
WEATHER ROUNDUP FOR THE MARIANAS AND MICRONESIA
NATIONAL WEATHER SERVICE TIYAN GU
1100 AM CHST TUE JUN 18 2019

GUZ001>004-180200-
MARIANA ISLANDS-
  
CITY           SKY/WX    TMP DP  RH WIND       PRES   REMARKS
GUAM AIRPORT   MOSUNNY   88  75  66 E16       29.88S HX  97           
ANDERSEN AFB   MOSUNNY   82  77  83 E7        29.89F HX  91           
ROTA AIRPORT   MOSUNNY   86  75  70 E17       29.87F HX  95           
TINIAN AP      MOSUNNY   90  77  66 E12       29.86F HX 102           
SAIPAN AP      MOSUNNY   88  75  66 E16       29.88S HX  97           

$$

PMZ161-180200-
REPUBLIC OF PALAU-
  
CITY           SKY/WX    TMP DP  RH WIND       PRES   REMARKS
KOROR AP       PTSUNNY   84  77  79 E7        29.85S HX  94           
KOROR WSO      NOT AVBL                                               

$$

PMZ171>174-180200-
FEDERATED STATES OF MICRONESIA-
  
CITY           SKY/WX    TMP DP  RH WIND       PRES   REMARKS
YAP AIRPORT    PTSUNNY   90  79  70 E8        29.84S HX 105           
CHUUK AP       CLOUDY    88  82  84 VRB6      29.81  HX 108           
POHNPEI AP     CLOUDY    88  77  70 NE7       29.80F HX 100           
POHNPEI WSO    CLOUDY    84  79  84 NE7       29.83F HX  96           
KOSRAE AP      PTSUNNY   88  77  70 NE12      29.78S HX 100           

$$

PMZ181-180200-
REPUBLIC OF THE MARSHALL ISLANDS-
  
CITY           SKY/WX    TMP DP  RH WIND       PRES   REMARKS
KWAJALEIN AP   SUNNY     88  77  70 NE15      29.82S HX 100           
MAJURO AP      NOT AVBL                                               
MAJURO WSO     PTSUNNY   84  77  79 E13       29.79F HX  94           

$$